Tracking 27111 objects as of 28-Mar-2023
HD Live streaming from Space Station
objects crossing your sky now

STARLINK-2018

Track STARLINK-2018 now!
10-day predictions
STARLINK-2018 is classified as:


NORAD ID: 47640
Int'l Code: 2021-012W
Perigee: 553.2 km
Apogee: 555.1 km
Inclination: 53.1 °
Period: 95.6 minutes
Semi major axis: 6925 km
RCS: Unknown
Launch date: February 16, 2021
Source: United States (US)
Launch site: AIR FORCE EASTERN TEST RANGE (AFETR)
Your satellite tracking list
Your tracking list is empty




NASA's NSSDC Master Catalog

Two Line Element Set (TLE):
1 47640U 21012W   23087.59011292  .00034769  00000-0  23370-2 0  9992
2 47640  53.0522 226.9057 0001348  63.2417 296.8709 15.06473253117646
Source of the keplerian elements: AFSPC